| time (UTC) | temp F | wind direction | speed knots | gust knots | rain 1hr in | rain 24hr in | rain mn in | humidity % | barometer mb |
| 20260903231612 | 59 | 242 | 3.5 | 7.8 | 0.00 | 0.06 | 0.02 | 71 | 1015.7 |
| 20260903230114 | 58 | 265 | 1.7 | 5.2 | 0.00 | 0.06 | 0.02 | 78 | 1015.2 |
| 20260903224603 | 58 | 245 | 0.9 | 5.2 | 0.00 | 0.07 | 0.02 | 77 | 1014.9 |
| 20260903223113 | 59 | 267 | 2.6 | 9.6 | 0.00 | 0.07 | 0.02 | 75 | 1014.8 |
| 20260903221604 | 59 | 239 | 2.6 | 7.0 | 0.00 | 0.07 | 0.02 | 74 | 1014.7 |
| 20260903220108 | 59 | 253 | 4.3 | 10.4 | 0.00 | 0.07 | 0.02 | 66 | 1014.6 |
| 20260903214559 | 59 | 291 | 3.5 | 9.6 | 0.00 | 0.07 | 0.02 | 68 | 1014.3 |
| 20260903213103 | 59 | 266 | 4.3 | 11.3 | 0.00 | 0.07 | 0.02 | 70 | 1014.1 |
| 20260903211616 | 59 | 225 | 2.6 | 11.3 | 0.00 | 0.07 | 0.02 | 73 | 1013.9 |
| 20260903204605 | 59 | 241 | 2.6 | 12.2 | 0.00 | 0.07 | 0.02 | 83 | 1013.6 |
| 20260903203105 | 58 | 276 | 3.5 | 9.6 | 0.00 | 0.07 | 0.02 | 85 | 1013.4 |
| 20260903201606 | 58 | 270 | 3.5 | 10.4 | 0.00 | 0.07 | 0.02 | 86 | 1013.2 |
| 20260903200112 | 58 | 278 | 4.3 | 13.0 | 0.00 | 0.07 | 0.02 | 86 | 1013.3 |
| 20260903194602 | 58 | 257 | 2.6 | 7.8 | 0.00 | 0.07 | 0.02 | 85 | 1013.0 |
| 20260903193105 | 58 | 245 | 2.6 | 15.6 | 0.00 | 0.07 | 0.02 | 81 | 1013.1 |
| 20260903191609 | 61 | 65 | 5.2 | 13.9 | 0.00 | 0.07 | 0.02 | 74 | 1013.3 |
| 20260903190105 | 61 | 308 | 2.6 | 8.7 | 0.00 | 0.07 | 0.02 | 72 | 1012.8 |
| 20260903184604 | 61 | 315 | 2.6 | 8.7 | 0.00 | 0.11 | 0.02 | 72 | 1012.8 |
| 20260903183121 | 61 | 291 | 2.6 | 9.6 | 0.00 | 0.11 | 0.02 | 72 | 1013.0 |
| 20260903181639 | 61 | 289 | 2.6 | 9.6 | 0.00 | 0.11 | 0.02 | 70 | 1013.1 |
| 20260903174604 | 60 | 270 | 3.5 | 10.4 | 0.00 | 0.11 | 0.02 | 71 | 1013.0 |
| 20260903173111 | 60 | 313 | 2.6 | 9.6 | 0.00 | 0.11 | 0.02 | 76 | 1013.1 |
| 20260903171607 | 60 | 243 | 3.5 | 12.2 | 0.00 | 0.11 | 0.02 | 80 | 1013.3 |
| 20260903164605 | 58 | 236 | 3.5 | 12.2 | 0.03 | 0.11 | 0.02 | 87 | 1013.5 |
| 20260903163100 | 58 | 279 | 1.7 | 6.1 | 0.03 | 0.11 | 0.02 | 88 | 1013.5 |
| 20260903161617 | 58 | 265 | 2.6 | 8.7 | 0.02 | 0.10 | 0.01 | 87 | 1013.7 |
| 20260903160101 | 58 | 0 | 0.0 | 3.5 | 0.00 | 0.08 | 0.00 | 86 | 1013.7 |
| 20260903154600 | 58 | 347 | 1.7 | 7.0 | 0.00 | 0.07 | 0.07 | 83 | 1013.8 |
| 20260903153101 | 61 | 268 | 2.6 | 7.8 | 0.00 | 0.07 | 0.07 | 76 | 1014.1 |
| 20260903151614 | 60 | 246 | 1.7 | 8.7 | 0.00 | 0.07 | 0.07 | 74 | 1013.9 |
| 20260903144602 | 61 | 250 | 2.6 | 8.7 | 0.00 | 0.07 | 0.07 | 69 | 1014.3 |
| 20260903143103 | 61 | 0 | 0.9 | 9.6 | 0.00 | 0.07 | 0.07 | 65 | 1014.4 |
| 20260903141605 | 61 | 263 | 0.9 | 6.1 | 0.00 | 0.07 | 0.07 | 70 | 1014.5 |
| 20260903140104 | 61 | 306 | 1.7 | 7.0 | 0.00 | 0.07 | 0.07 | 68 | 1014.6 |
| 20260903134609 | 61 | 300 | 1.7 | 9.6 | 0.00 | 0.08 | 0.07 | 69 | 1014.9 |
| 20260903133106 | 61 | 290 | 3.5 | 11.3 | 0.00 | 0.08 | 0.07 | 70 | 1015.0 |
| 20260903131604 | 61 | 324 | 0.9 | 6.1 | 0.00 | 0.08 | 0.07 | 70 | 1015.1 |
| 20260903130109 | 61 | 265 | 0.9 | 8.7 | 0.00 | 0.08 | 0.07 | 68 | 1015.0 |
| 20260903124606 | 61 | 269 | 0.9 | 9.6 | 0.00 | 0.08 | 0.07 | 67 | 1015.4 |
| 20260903123105 | 61 | 267 | 2.6 | 10.4 | 0.00 | 0.08 | 0.07 | 68 | 1015.4 |
| 20260903121601 | 61 | 296 | 4.3 | 9.6 | 0.00 | 0.08 | 0.07 | 71 | 1015.4 |
| 20260903120103 | 61 | 296 | 1.7 | 8.7 | 0.00 | 0.08 | 0.07 | 70 | 1015.4 |
| 20260903114602 | 61 | 350 | 1.7 | 10.4 | 0.00 | 0.16 | 0.07 | 76 | 1015.5 |
| 20260903113102 | 61 | 265 | 2.6 | 8.7 | 0.00 | 0.16 | 0.07 | 79 | 1015.3 |
| 20260903111602 | 61 | 309 | 0.9 | 7.0 | 0.00 | 0.16 | 0.07 | 81 | 1015.1 |
| 20260903104605 | 59 | 0 | 0.9 | 6.1 | 0.00 | 0.24 | 0.07 | 87 | 1014.9 |
| 20260903103101 | 59 | 234 | 0.9 | 6.1 | 0.00 | 0.24 | 0.07 | 86 | 1014.9 |
| 20260903101607 | 60 | 328 | 0.9 | 7.8 | 0.00 | 0.24 | 0.07 | 86 | 1014.8 |
| 20260903094611 | 61 | 315 | 0.9 | 7.8 | 0.00 | 0.24 | 0.07 | 82 | 1014.5 |
| 20260903093107 | 62 | 299 | 0.0 | 5.2 | 0.00 | 0.24 | 0.07 | 80 | 1014.6 |
| 20260903091609 | 62 | 329 | 3.5 | 8.7 | 0.00 | 0.24 | 0.07 | 79 | 1014.5 |
| 20260903090106 | 62 | 284 | 1.7 | 7.0 | 0.00 | 0.24 | 0.07 | 82 | 1014.4 |
| 20260903084618 | 62 | 281 | 1.7 | 6.1 | 0.00 | 0.24 | 0.07 | 82 | 1014.5 |
| 20260903083107 | 62 | 317 | 0.9 | 7.0 | 0.00 | 0.24 | 0.07 | 83 | 1014.4 |
| 20260903081602 | 64 | 355 | 1.7 | 6.1 | 0.00 | 0.24 | 0.07 | 77 | 1014.5 |
| 20260903080106 | 64 | 292 | 1.7 | 7.8 | 0.00 | 0.24 | 0.07 | 77 | 1014.5 |
| 20260903074600 | 65 | 257 | 5.2 | 11.3 | 0.00 | 0.24 | 0.07 | 75 | 1014.6 |
| 20260903073115 | 66 | 315 | 1.7 | 7.0 | 0.00 | 0.24 | 0.07 | 71 | 1014.7 |
| 20260903071601 | 66 | 301 | 2.6 | 7.8 | 0.00 | 0.24 | 0.07 | 71 | 1014.8 |
| 20260903070108 | 66 | 267 | 1.7 | 7.8 | 0.00 | 0.24 | 0.07 | 72 | 1014.9 |
| 20260903064602 | 66 | 257 | 1.7 | 6.1 | 0.00 | 0.24 | 0.07 | 71 | 1015.0 |
| 20260903063126 | 65 | 334 | 1.7 | 7.8 | 0.00 | 0.24 | 0.07 | 75 | 1015.2 |
| 20260903061604 | 66 | 294 | 1.7 | 6.1 | 0.00 | 0.24 | 0.07 | 77 | 1015.4 |
| 20260903060108 | 65 | 0 | 1.7 | 5.2 | 0.00 | 0.24 | 0.07 | 82 | 1015.4 |
| 20260903054601 | 63 | 355 | 0.0 | 8.7 | 0.00 | 0.24 | 0.07 | 88 | 1015.7 |
| 20260903053104 | 63 | 9 | 0.9 | 4.3 | 0.00 | 0.24 | 0.07 | 86 | 1016.0 |
| 20260903051602 | 62 | 67 | 2.6 | 7.0 | 0.01 | 0.24 | 0.07 | 86 | 1016.3 |
| 20260903050105 | 62 | 341 | 1.7 | 4.3 | 0.01 | 0.24 | 0.07 | 90 | 1016.4 |
| 20260903044600 | 61 | 281 | 0.9 | 4.3 | 0.01 | 0.24 | 0.07 | 91 | 1016.8 |
| 20260903043110 | 60 | 324 | 0.9 | 6.1 | 0.02 | 0.24 | 0.07 | 89 | 1017.3 |
| 20260903041601 | 62 | 335 | 0.9 | 7.0 | 0.00 | 0.22 | 0.05 | 89 | 1017.6 |
| 20260903040105 | 62 | 286 | 0.0 | 6.1 | 0.00 | 0.22 | 0.05 | 90 | 1017.6 |
| 20260903034605 | 60 | 360 | 0.9 | 7.0 | 0.00 | 0.22 | 0.05 | 90 | 1018.0 |
| 20260903033103 | 61 | 19 | 0.9 | 5.2 | 0.00 | 0.22 | 0.04 | 89 | 1017.9 |
| 20260903031557 | 61 | 5 | 2.6 | 8.7 | 0.00 | 0.22 | 0.04 | 84 | 1018.0 |
| 20260903030110 | 62 | 343 | 0.0 | 2.6 | 0.00 | 0.22 | 0.04 | 84 | 1018.0 |
| 20260903024600 | 63 | 0 | 0.0 | 3.5 | 0.00 | 0.22 | 0.04 | 83 | 1018.1 |
| 20260903023108 | 63 | 0 | 0.9 | 4.3 | 0.00 | 0.22 | 0.04 | 85 | 1018.4 |
| 20260903021602 | 61 | 19 | 0.0 | 2.6 | 0.00 | 0.22 | 0.04 | 88 | 1018.6 |
| 20260903014603 | 61 | 14 | 0.9 | 5.2 | 0.00 | 0.22 | 0.04 | 89 | 1019.0 |
| 20260903013103 | 61 | 0 | 0.0 | 3.5 | 0.00 | 0.22 | 0.04 | 91 | 1019.0 |
| 20260903011610 | 60 | 0 | 0.0 | 3.5 | 0.00 | 0.22 | 0.04 | 93 | 1019.1 |
| 20260903010108 | 59 | 19 | 0.0 | 1.7 | 0.00 | 0.22 | 0.04 | 94 | 1019.1 |
| 20260903004625 | 58 | 14 | 0.0 | 4.3 | 0.00 | 0.22 | 0.04 | 94 | 1018.8 |
| 20260903003107 | 57 | 0 | 0.0 | 2.6 | 0.00 | 0.22 | 0.04 | 95 | 1018.8 |
| 20260903001604 | 58 | 0 | 0.0 | 0.9 | 0.00 | 0.22 | 0.04 | 95 | 1019.0 |
| 20260902234601 | 56 | 0 | 0.0 | 0.9 | 0.00 | 0.22 | 0.04 | 95 | 1018.9 |
| 20260902233105 | 55 | 0 | 0.0 | 0.9 | 0.00 | 0.22 | 0.04 | 95 | 1018.9 |